Weather History for Oxford, CT

Change the Weather History Date:

Wednesday, November 16, 2011

  Actual Average Record
Temperature  
Mean Temperature 52 °F -  
Max Temperature 55 °F 46 °F 66 °F (2001)
Min Temperature 50 °F 31 °F 15 °F (1996)
Degree Days  
Heating Degree Days 12    
Growing Degree Days 2 (Base 50)    
Moisture  
Dew Point 49 °F    
Average Humidity 88    
Maximum Humidity 94    
Minimum Humidity 77    
Precipitation  
Precipitation 0.04 in - - ()
Sea Level Pressure  
Sea Level Pressure 29.87 in    
Wind  
Wind Speed 2 mph (NE)    
Max Wind Speed 9 mph    
Max Gust Speed -    
Visibility 8 miles    
Events Rain    
Averages and records for this station are not official NWS values.
T = Trace of Precipitation, MM = Missing Value Source: NWS Daily Summary

Daily Weather History Graph

Daily Weather History Graph

Search for Another Location

Airport:

Trip Planner

Search our weather history database for the weather conditions in past years. The results will help you decide how hot, cold, wet, or windy it might be!

Date:

Astronomy

Nov. 16, 2011 Rise Set
Actual Time 6:42 AM EST 4:32 PM EST
Civil Twilight 6:12 AM EST 5:01 PM EST
Nautical Twilight 5:38 AM EST 5:35 PM EST
Astronomical Twilight 5:05 AM EST 6:08 PM EST
Moon 9:43 PM EST (11/16) 11:16 AM EST (11/16)
Length of Visible Light 10h 49m
Length of Day
9h 50m
Waning Gibbous, 70% of the Moon is Illuminated
Nov 16
Waning Gibbous
Nov 18
Last Quarter
Nov 25
New
Dec 2
First Quarter
Dec 10
Full

Hourly Weather History & Observations

Time (EST) Temp. Dew Point Humidity Pressure Visibility Wind Dir Wind Speed Gust Speed Precip Events Conditions
12:15 AM 53.6 °F 46.4 °F 77% 29.98 in 10.0 mi Calm Calm - N/A   Mostly Cloudy
12:35 AM 51.8 °F 46.4 °F 82% 29.97 in 10.0 mi Calm Calm - N/A   Mostly Cloudy
1:15 AM 51.8 °F 48.2 °F 88% 29.96 in 10.0 mi Calm Calm - N/A   Overcast
1:55 AM 51.8 °F 46.4 °F 82% 29.97 in 10.0 mi Calm Calm - N/A   Overcast
2:15 AM 53.6 °F 48.2 °F 82% 29.97 in 10.0 mi Calm Calm - N/A   Overcast
2:35 AM 51.8 °F 46.4 °F 82% 29.97 in 10.0 mi Calm Calm - N/A   Mostly Cloudy
2:55 AM 51.8 °F 46.4 °F 82% 29.96 in 10.0 mi Calm Calm - N/A   Mostly Cloudy
3:15 AM 51.8 °F 48.2 °F 88% 29.95 in 10.0 mi ESE 3.5 mph - N/A   Overcast
3:35 AM 51.8 °F 46.4 °F 82% 29.95 in 10.0 mi Calm Calm - N/A   Overcast
4:15 AM 51.8 °F 48.2 °F 88% 29.94 in 10.0 mi Calm Calm - N/A   Mostly Cloudy
4:35 AM 50.0 °F 48.2 °F 94% 29.94 in 10.0 mi Calm Calm - N/A   Overcast
4:55 AM 50.0 °F 48.2 °F 94% 29.94 in 9.0 mi SE 4.6 mph - N/A   Overcast
5:15 AM 51.8 °F 48.2 °F 88% 29.96 in 10.0 mi Calm Calm - N/A   Overcast
5:35 AM 51.8 °F 48.2 °F 88% 29.96 in 10.0 mi Calm Calm - N/A   Overcast
5:45 AM 51.8 °F 48.2 °F 88% 29.95 in 10.0 mi South 4.6 mph - N/A   Overcast
7:45 AM 51.8 °F 48.2 °F 88% 29.95 in 8.0 mi SSE 3.5 mph - N/A   Overcast
8:45 AM 53.6 °F 50.0 °F 88% 29.96 in 4.0 mi South 3.5 mph - N/A   Overcast
9:45 AM 53.6 °F 50.0 °F 88% 29.95 in 6.0 mi SSW 4.6 mph - N/A   Mostly Cloudy
10:45 AM 55.4 °F 50.0 °F 82% 29.91 in 8.0 mi SSW 3.5 mph - N/A   Overcast
11:45 AM 55.4 °F 50.0 °F 82% 29.88 in 10.0 mi South 6.9 mph - N/A   Overcast
12:45 PM 55.4 °F 51.8 °F 88% 29.84 in 10.0 mi South 5.8 mph - N/A   Overcast
1:10 PM 55.4 °F 51.8 °F 88% 29.83 in 8.0 mi South 5.8 mph - N/A   Overcast
1:25 PM 55.4 °F 51.8 °F 88% 29.83 in 2.0 mi Calm Calm - N/A Rain Light Rain
1:45 PM 53.6 °F 51.8 °F 94% 29.81 in 2.0 mi Calm Calm - N/A Rain Light Rain
2:45 PM 53.6 °F 51.8 °F 94% 29.79 in 1.5 mi Calm Calm - N/A Rain Light Rain
3:55 PM 53.6 °F 51.8 °F 94% 29.77 in 1.0 mi NE 4.6 mph - N/A Rain Light Rain
4:45 PM 53.6 °F 51.8 °F 94% 29.75 in 2.0 mi ENE 4.6 mph - N/A Rain Light Rain
5:45 PM 53.6 °F 51.8 °F 94% 29.75 in 2.0 mi NNE 5.8 mph - N/A Rain Light Rain
6:45 PM 53.6 °F 51.8 °F 94% 29.75 in 1.0 mi North 8.1 mph - N/A Rain Light Rain
7:45 PM 53.6 °F 51.8 °F 94% 29.77 in 2.0 mi NNW 4.6 mph - N/A Rain Light Rain
8:45 PM 53.6 °F 51.8 °F 94% 29.79 in 5.0 mi NNW 4.6 mph - N/A Rain Light Rain
9:55 PM 51.8 °F 48.2 °F 88% 29.77 in 10.0 mi North 9.2 mph - 0.01 in   Overcast
10:15 PM 51.8 °F 48.2 °F 88% 29.76 in 10.0 mi North 9.2 mph - 0.01 in   Overcast
10:35 PM 51.8 °F 48.2 °F 88% 29.75 in 10.0 mi North 6.9 mph - 0.01 in   Overcast
10:55 PM 51.8 °F 48.2 °F 88% 29.75 in 10.0 mi North 5.8 mph - 0.01 in   Overcast
11:15 PM 51.8 °F 48.2 °F 88% 29.75 in 10.0 mi North 3.5 mph - N/A   Overcast
11:55 PM 51.8 °F 48.2 °F 88% 29.76 in 10.0 mi North 6.9 mph - 0.02 in   Overcast